EW8299 Weather Reports


Display with metric or nautical units.
time (UTC)temp
F
wind
direction
speed
MPH
gust
MPH
rain 1hr
in
rain 24hr
in
rain mn
in
humidity
%
barometer
mb
20260506221605 49 56 0.0 0.0 0.00 0.00 0.00 86 1004.8
20260506220058 49 70 0.0 0.0 0.00 0.00 0.00 86 1004.6
20260506214600 50 44 0.0 0.0 0.00 0.00 0.00 86 1004.6
20260506213059 50 72 0.0 0.0 0.00 0.00 0.00 85 1004.5
20260506211556 50 70 0.0 1.0 0.00 0.00 0.00 85 1004.4
20260506210051 50 69 0.0 0.0 0.00 0.00 0.00 86 1004.3
20260506204550 51 62 0.0 0.0 0.00 0.00 0.00 85 1004.3
20260506203052 51 88 0.0 0.0 0.00 0.00 0.00 85 1004.3
20260506201552 52 49 0.0 0.0 0.00 0.00 0.00 85 1004.4
20260506200048 52 29 0.0 0.0 0.00 0.00 0.00 85 1004.4
20260506194549 53 360 0.0 0.0 0.00 0.00 0.00 84 1004.5
20260506193053 53 337 0.0 1.0 0.00 0.00 0.00 84 1004.4
20260506191548 54 346 0.0 8.0 0.00 0.00 0.00 82 1004.6
20260506190050 55 354 0.0 0.0 0.00 0.00 0.00 81 1004.2
20260506184546 55 2 0.0 0.0 0.00 0.00 0.00 80 1003.8
20260506183046 55 333 0.0 0.0 0.00 0.00 0.00 80 1003.5
20260506181600 56 71 0.0 8.0 0.00 0.00 0.00 79 1002.9
20260506180045 56 83 0.0 5.0 0.00 0.00 0.00 79 1003.0
20260506174544 56 46 0.0 3.0 0.00 0.00 0.00 78 1003.1
20260506173111 56 91 0.0 9.0 0.00 0.00 0.00 77 1002.9
20260506171544 57 47 0.0 3.0 0.00 0.00 0.00 74 1003.0
20260506170100 57 56 0.0 12.0 0.00 0.00 0.00 74 1003.1
20260506164541 57 61 0.0 10.0 0.00 0.00 0.00 74 1003.0
20260506163050 58 356 0.0 11.0 0.00 0.00 0.00 73 1003.2
20260506161540 58 337 0.0 10.0 0.00 0.00 0.00 72 1003.3
20260506160042 58 33 0.0 11.0 0.00 0.00 0.00 74 1003.4
20260506154547 58 71 0.0 8.0 0.00 0.00 0.00 75 1003.5
20260506153034 58 70 0.0 5.0 0.00 0.00 0.00 76 1003.8
20260506151534 58 62 0.0 10.0 0.00 0.00 0.00 78 1003.9
20260506150031 59 66 0.0 3.0 0.00 0.00 0.00 79 1004.1
20260506144537 59 47 0.0 6.0 0.00 0.00 0.00 74 1004.8
20260506143031 61 74 0.0 6.0 0.00 0.00 0.00 70 1004.7
20260506141530 64 25 1.0 9.0 0.00 0.00 0.00 64 1004.5
20260506140033 65 56 1.0 8.0 0.00 0.00 0.00 56 1004.3
20260506134527 66 35 2.0 6.0 0.00 0.00 0.00 55 1004.3
20260506133035 67 54 0.0 6.0 0.00 0.00 0.00 54 1004.4
20260506131524 67 1 1.0 9.0 0.00 0.00 0.00 53 1004.6
20260506130022 68 35 2.0 9.0 0.00 0.00 0.00 53 1004.8
20260506124518 67 82 0.0 7.0 0.00 0.00 0.00 54 1005.0
20260506123119 66 339 0.0 6.0 0.00 0.00 0.00 53 1005.2
20260506121516 67 351 2.0 11.0 0.00 0.00 0.00 52 1005.3
20260506120013 66 33 0.0 7.0 0.00 0.00 0.00 54 1005.5
20260506114511 66 68 0.0 3.0 0.00 0.00 0.00 54 1005.5
20260506113008 64 79 0.0 10.0 0.00 0.00 0.00 54 1005.9
20260506111504 64 75 1.0 4.0 0.00 0.00 0.00 56 1006.2
20260506110003 63 59 1.0 13.0 0.00 0.00 0.00 57 1006.3
20260506104504 63 82 1.0 12.0 0.00 0.00 0.00 56 1006.4
20260506103110 63 83 3.0 13.0 0.00 0.00 0.00 56 1006.5
20260506101559 63 73 1.0 13.0 0.00 0.00 0.00 56 1006.7
20260506100056 64 30 0.0 8.0 0.00 0.00 0.00 55 1006.8
20260506094552 62 20 0.0 6.0 0.00 0.00 0.00 57 1006.7
20260506093049 61 36 0.0 4.0 0.00 0.00 0.00 59 1006.7
20260506091549 61 37 0.0 14.0 0.00 0.00 0.00 58 1006.5
20260506090048 61 341 3.0 9.0 0.00 0.00 0.00 58 1006.7
20260506084544 60 47 1.0 6.0 0.00 0.00 0.00 58 1006.9
20260506083044 59 6 2.0 9.0 0.00 0.00 0.00 60 1007.0
20260506081539 59 69 0.0 8.0 0.00 0.00 0.00 61 1007.2
20260506073034 58 15 2.0 9.0 0.00 0.00 0.00 61 1007.5
20260506071528 57 33 1.0 6.0 0.00 0.00 0.00 62 1007.5
20260506061517 52 33 0.0 5.0 0.00 0.00 0.00 74 1007.8
20260506044500 48 50 0.0 2.0 0.00 0.00 0.00 86 1007.9
20260506043058 48 11 0.0 6.0 0.00 0.00 0.00 87 1008.0
20260506041555 48 345 0.0 2.0 0.00 0.00 0.00 88 1007.7
20260506040051 48 15 0.0 1.0 0.00 0.00 0.00 88 1007.6
20260506034551 48 349 0.0 0.0 0.00 0.00 0.00 88 1007.6
20260506033046 48 20 0.0 0.0 0.00 0.00 0.00 88 1007.7
20260506031549 48 348 0.0 0.0 0.00 0.00 0.00 88 1007.6
20260506030043 48 30 0.0 0.0 0.00 0.00 0.00 88 1007.5
20260506024545 48 20 0.0 0.0 0.00 0.00 0.00 87 1007.4
20260506023042 48 2 0.0 0.0 0.00 0.00 0.00 87 1007.5
20260506021552 48 41 0.0 0.0 0.00 0.00 0.00 87 1007.2
20260506020039 48 15 0.0 0.0 0.00 0.00 0.00 87 1007.1
20260506014539 48 15 0.0 0.0 0.00 0.00 0.00 87 1007.1
20260506013043 48 2 0.0 2.0 0.00 0.00 0.00 87 1007.0
20260506011544 48 2 0.0 0.0 0.00 0.00 0.00 87 1007.0
20260506010045 48 349 0.0 0.0 0.00 0.00 0.00 87 1007.3
20260506004534 48 360 0.0 3.0 0.00 0.00 0.00 87 1007.3
20260506003032 49 347 0.0 5.0 0.00 0.00 0.00 85 1007.0
20260506001529 50 4 0.0 0.0 0.00 0.00 0.00 84 1006.7
20260506000028 50 357 0.0 2.0 0.00 0.00 0.00 82 1006.9
20260505234533 50 360 0.0 0.0 0.00 0.00 0.00 83 1006.8
20260505233028 51 343 0.0 0.0 0.00 0.00 0.00 84 1006.9
20260505231529 51 337 0.0 0.0 0.00 0.00 0.00 84 1006.7
20260505230025 51 329 0.0 0.0 0.00 0.00 0.00 84 1006.9
20260505224529 51 351 0.0 0.0 0.00 0.00 0.00 83 1006.6
20260505223020 52 34 0.0 0.0 0.00 0.00 0.00 81 1006.4